Погода в Коргоне

Россия / Республика Алтай     51°05′59″N   84°02′17″E
темп.,
°C
ветер,
м/с
пор.,
м/с
влажн.,
%
обл.,
%
осадки,
мм/ч
давл.,
гПа
погр.,
м
20 мая, пт
пт2001:00+7ююз33935 1.3 101842
04:00+7ююз228965 0.0 101825
07:00+8ююз2287100 0.3 101853
10:00+13зюз126897 1.4 1018697
13:00+16зсз254954 1.9 10162161
16:00+14сз345199 0.4 10161413
19:00+13ссз126167 0.6 1017629
22:00+7ююз11825 0.1 101910
21 мая, сб
сб2101:00+7ююз22815 0.1 101912
04:00+6ююз11785 0.0 101910
07:00+8юв117397 0.0 101933
10:00+14в234611 0.0 1017731
13:00+19всв22355 0.0 10131204
16:00+20всв22310 0.0 10111569
19:00+19всв12440 0.0 1009342
22:00+12ююв2256100 0.0 100914
22 мая, вс
вс2201:00+11ююв3256100 0.0 100829
04:00+11ююв3355100 0.0 100629
07:00+13ю3357100 0.0 100551
10:00+16ю2455100 0.0 1005677
13:00+18ю6114696 0.0 10041911
16:00+18ююз395224 0.2 10051668
19:00+18ю2858100 0.3 10051337
22:00+13ю3376100 0.1 100953
23 мая, пн
пн2301:00+10сз2495100 0.4 1013116
04:00+7ссз4597100 1.1 1018411
07:00+4вюв1189100 3.0 1021151
10:00+6всв1194100 1.7 1022258
13:00+10всв1180100 1.9 1020651
16:00+12ссв117199 0.0 1019870
19:00+13св116513 0.1 1018894
22:00+7ююв11870 0.0 101910
24 мая, вт
вт2401:00+6ююв119099 0.0 101911
04:00+6юв1188100 0.0 101810
07:00+8юв1278100 0.0 101746
10:00+15в1251100 0.0 1015445
13:00+20с2138100 0.0 10131223
16:00+19ссз3247100 0.0 1013912
19:00+16сз2266100 0.0 1013416
22:00+12всв009199 0.2 101512